CZ-6A DEB, 56621

Orbit data source: Space-Track

CZ-6A DEB, 56621 is space debris in SSO originally from a launch on Fri, 11 Nov 2022 UTC launched from the Taiyaun Space Center, China (TSC). Debris objects in space refer to the collection of defunct objects orbiting the Earth. Examples of debris include non-operational satellites, rocket bodies, and fragments generated from explosions, collisions, or faulty payload assembly.

Loading next visibility...
Identifier
56621, 2022-151AEV
Orbit
SSO
Country
Flag of CNCN / PRC
Related business
Manufacturer
SAST
Mission
Spacecraft
Bus & Motor
Unknown
Mass
Unknown
Launch date (UTC)
2022-11-11 (4 years ago)
Launch vehicle
Unknown
Launch site
Taiyaun Space Center, China (TSC)
Object type
Payload
Rocket body
Debris
Shape & HBR
Unknown shape, 0.1 m
Radar Cross Section
Small (<0.1 m²)

Expand to show TLE details & history
Last TLE update: 18 hours ago

TLE from 18 hours ago
0 CZ-6A DEB
1 56621U 22151AEV 26207.39919261  .00001161  00000-0  81690-3 0  9994
2 56621  98.9311 182.4742 0114581 323.6283  35.7132 13.97037724170752
Epoch: 2026-07-26T09:34Z
TLE epoch observation values (Epoch: 2026-07-26T09:34:50.241Z)
Latitude
-0.00006°
Longitude
94.66719°
Altitude
839.516 km
Speed
7.467 km/s
True Right ascension
12h 09m 53s
True Declination
0° 00' 00"
Sunlit
Object was in daylight at epoch
Visualization orbit readout
Latitude
Unknown
Longitude
Unknown
Altitude
Unknown
Speed
Unknown
Apparent Right ascension
Unknown
Apparent Declination
Unknown
Sunlit
N/A
Visualization observer readout
Local Sidereal Time
17:07:22
Azimuth
Unknown
Elevation
Unknown
Doppler factor
Unknown
Orbital elements
Apogee altitude
984.679 km
Perigee altitude
817.862 km
Semi-major axis
7,279.408 km
Eccentricity
0.01146
Inclination
98.9311°
RAAN
182.4742°
Arg. of periapsis
323.6283°
True anomaly
36.48863°
Mean anomaly
35.7132°
Eccentric anomaly
36.10001°
Mean motion
3.49461 °/min
Orbital period
103.02 mins
BSTAR
0.0008169
Loading maneuver chart data...
Computing Atmospheric mass density...
Loading historical data...
Loading historical data...
Loading historical data...
Loading historical data...
Loading historical data...
Loading historical data...
Loading historical data...

Documentation

Showing up to 5 results
|